TimeAKDT,TemperatureF,Dew PointF,Humidity,Sea Level PressureIn,VisibilityMPH,Wind Direction,Wind SpeedMPH,Gust SpeedMPH,PrecipitationIn,Events,Conditions,WindDirDegrees,DateUTC
12:16 AM,17.6,10.4,73,30.13,10.0,North,3.5,-,N/A,,Clear,10,2012-10-27 08:16:00
12:36 AM,19.4,10.4,68,30.13,10.0,Calm,Calm,-,N/A,,Clear,0,2012-10-27 08:36:00
12:56 AM,17.6,10.4,73,30.13,10.0,Calm,Calm,-,N/A,,Clear,0,2012-10-27 08:56:00
1:16 AM,17.6,8.6,68,30.12,10.0,NW,3.5,-,N/A,,Clear,320,2012-10-27 09:16:00
1:36 AM,19.4,10.4,68,30.12,10.0,Calm,Calm,-,N/A,,Clear,0,2012-10-27 09:36:00
1:56 AM,17.6,8.6,68,30.11,10.0,Calm,Calm,-,N/A,,Clear,0,2012-10-27 09:56:00
2:16 AM,15.8,6.8,68,30.11,10.0,Calm,Calm,-,N/A,,Clear,0,2012-10-27 10:16:00
2:36 AM,15.8,8.6,73,30.11,10.0,Calm,Calm,-,N/A,,Clear,0,2012-10-27 10:36:00
2:56 AM,14.0,6.8,73,30.10,10.0,NNW,3.5,-,N/A,,Clear,340,2012-10-27 10:56:00
3:16 AM,15.8,8.6,73,30.09,10.0,Calm,Calm,-,N/A,,Clear,0,2012-10-27 11:16:00
3:36 AM,15.8,8.6,73,30.08,10.0,Calm,Calm,-,N/A,,Clear,0,2012-10-27 11:36:00
3:56 AM,15.8,6.8,68,30.08,10.0,Calm,Calm,-,N/A,,Clear,0,2012-10-27 11:56:00
4:16 AM,15.8,3.2,58,30.07,10.0,Calm,Calm,-,N/A,,Clear,0,2012-10-27 12:16:00
4:36 AM,15.8,6.8,68,30.06,10.0,North,3.5,-,N/A,,Clear,360,2012-10-27 12:36:00
4:56 AM,14.0,6.8,73,30.06,10.0,Calm,Calm,-,N/A,,Clear,0,2012-10-27 12:56:00
5:16 AM,15.8,6.8,68,30.05,10.0,North,3.5,-,N/A,,Clear,360,2012-10-27 13:16:00
5:36 AM,12.2,6.8,79,30.04,10.0,North,4.6,-,N/A,,Clear,350,2012-10-27 13:36:00
5:56 AM,12.2,6.8,79,30.04,10.0,Calm,Calm,-,N/A,,Clear,0,2012-10-27 13:56:00
6:16 AM,14.0,8.6,79,30.04,10.0,Calm,Calm,-,N/A,,Clear,0,2012-10-27 14:16:00
6:36 AM,14.0,6.8,73,30.04,10.0,NNW,3.5,-,N/A,,Clear,340,2012-10-27 14:36:00
6:56 AM,14.0,5.0,67,30.04,10.0,Calm,Calm,-,N/A,,Clear,0,2012-10-27 14:56:00
7:16 AM,12.2,3.2,67,30.04,10.0,Calm,Calm,-,N/A,,Clear,0,2012-10-27 15:16:00
7:36 AM,14.0,6.8,73,30.03,10.0,North,3.5,-,N/A,,Clear,350,2012-10-27 15:36:00
7:56 AM,14.0,6.8,73,30.03,10.0,Calm,Calm,-,N/A,,Clear,0,2012-10-27 15:56:00
8:16 AM,14.0,5.0,67,30.02,10.0,Calm,Calm,-,N/A,,Clear,0,2012-10-27 16:16:00
8:36 AM,14.0,8.6,79,30.02,10.0,Calm,Calm,-,N/A,,Clear,0,2012-10-27 16:36:00
8:56 AM,17.6,8.6,68,30.02,10.0,Calm,Calm,-,N/A,,Clear,0,2012-10-27 16:56:00
9:16 AM,17.6,8.6,68,30.02,10.0,Calm,Calm,-,N/A,,Clear,0,2012-10-27 17:16:00
9:36 AM,19.4,12.2,74,30.01,10.0,Calm,Calm,-,N/A,,Clear,0,2012-10-27 17:36:00
9:56 AM,21.2,12.2,68,30.01,10.0,Calm,Calm,-,N/A,,Clear,0,2012-10-27 17:56:00
10:16 AM,26.6,15.8,64,30.00,10.0,Calm,Calm,-,N/A,,Clear,0,2012-10-27 18:16:00
10:36 AM,26.6,17.6,69,30.00,10.0,North,3.5,-,N/A,,Clear,350,2012-10-27 18:36:00
10:56 AM,30.2,17.6,60,30.00,10.0,Calm,Calm,-,N/A,,Clear,0,2012-10-27 18:56:00
11:16 AM,33.8,19.4,56,29.99,10.0,Calm,Calm,-,N/A,,Clear,0,2012-10-27 19:16:00
11:36 AM,37.4,15.8,41,29.99,10.0,Calm,Calm,-,N/A,,Clear,0,2012-10-27 19:36:00
11:56 AM,39.2,10.4,31,29.99,10.0,Calm,Calm,-,N/A,,Clear,0,2012-10-27 19:56:00
12:16 PM,39.2,8.6,28,29.98,10.0,WNW,4.6,-,N/A,,Clear,290,2012-10-27 20:16:00
12:36 PM,39.2,8.6,28,29.98,10.0,NE,4.6,-,N/A,,Clear,50,2012-10-27 20:36:00
12:56 PM,39.2,8.6,28,29.98,10.0,NNE,5.8,-,N/A,,Clear,30,2012-10-27 20:56:00
1:16 PM,39.2,8.6,28,29.97,10.0,North,8.1,-,N/A,,Clear,10,2012-10-27 21:16:00
1:36 PM,39.2,8.6,28,29.97,10.0,NNE,8.1,-,N/A,,Clear,30,2012-10-27 21:36:00
1:56 PM,39.2,8.6,28,29.96,10.0,NNW,12.7,-,N/A,,Clear,340,2012-10-27 21:56:00
2:16 PM,39.2,8.6,28,29.95,10.0,North,8.1,-,N/A,,Clear,360,2012-10-27 22:16:00
2:36 PM,39.2,8.6,28,29.95,10.0,North,8.1,-,N/A,,Clear,350,2012-10-27 22:36:00
2:56 PM,39.2,8.6,28,29.95,10.0,North,9.2,-,N/A,,Clear,10,2012-10-27 22:56:00
3:16 PM,39.2,8.6,28,29.95,10.0,North,9.2,-,N/A,,Clear,360,2012-10-27 23:16:00
3:36 PM,39.2,8.6,28,29.94,10.0,North,8.1,-,N/A,,Clear,360,2012-10-27 23:36:00
3:56 PM,39.2,6.8,26,29.94,10.0,North,9.2,-,N/A,,Clear,360,2012-10-27 23:56:00
4:16 PM,37.4,6.8,28,29.93,10.0,North,8.1,-,N/A,,Clear,360,2012-10-28 00:16:00
4:36 PM,37.4,6.8,28,29.93,10.0,North,8.1,-,N/A,,Clear,350,2012-10-28 00:36:00
4:56 PM,37.4,6.8,28,29.92,10.0,North,5.8,-,N/A,,Clear,10,2012-10-28 00:56:00
5:16 PM,35.6,6.8,30,29.92,10.0,North,6.9,-,N/A,,Clear,360,2012-10-28 01:16:00
5:36 PM,35.6,6.8,30,29.92,10.0,NNW,5.8,-,N/A,,Clear,340,2012-10-28 01:36:00
5:56 PM,33.8,6.8,32,29.92,10.0,North,5.8,-,N/A,,Clear,360,2012-10-28 01:56:00
6:16 PM,33.8,6.8,32,29.92,10.0,NNE,4.6,-,N/A,,Clear,20,2012-10-28 02:16:00
6:36 PM,33.8,6.8,32,29.92,10.0,North,5.8,-,N/A,,Clear,360,2012-10-28 02:36:00
6:56 PM,35.6,6.8,30,29.93,10.0,North,13.8,21.9,N/A,,Clear,10,2012-10-28 02:56:00
7:16 PM,33.8,6.8,32,29.92,10.0,North,6.9,-,N/A,,Clear,10,2012-10-28 03:16:00
7:36 PM,33.8,6.8,32,29.92,10.0,NNE,5.8,-,N/A,,Clear,30,2012-10-28 03:36:00
7:56 PM,33.8,6.8,32,29.93,10.0,Calm,Calm,-,N/A,,Clear,0,2012-10-28 03:56:00
8:16 PM,33.8,5.0,30,29.93,10.0,NNE,4.6,-,N/A,,Clear,20,2012-10-28 04:16:00
8:36 PM,30.2,5.0,34,29.93,10.0,North,4.6,-,N/A,,Clear,360,2012-10-28 04:36:00
8:56 PM,30.2,6.8,37,29.93,10.0,North,4.6,-,N/A,,Clear,360,2012-10-28 04:56:00
9:16 PM,32.0,6.8,35,29.94,10.0,NNE,5.8,-,N/A,,Clear,30,2012-10-28 05:16:00
9:36 PM,30.2,3.2,32,29.94,10.0,Calm,Calm,-,N/A,,Clear,0,2012-10-28 05:36:00
9:56 PM,28.4,6.8,40,29.93,10.0,North,8.1,-,N/A,,Clear,10,2012-10-28 05:56:00
10:16 PM,30.2,6.8,37,29.94,10.0,NNE,3.5,-,N/A,,Clear,20,2012-10-28 06:16:00
10:36 PM,33.8,5.0,30,29.94,10.0,NNW,4.6,-,N/A,,Clear,340,2012-10-28 06:36:00
10:56 PM,26.6,3.2,37,29.94,10.0,North,4.6,-,N/A,,Clear,350,2012-10-28 06:56:00
11:16 PM,26.6,6.8,43,29.95,10.0,Calm,Calm,-,N/A,,Clear,0,2012-10-28 07:16:00
11:36 PM,26.6,6.8,43,29.95,10.0,Calm,Calm,-,N/A,,Clear,0,2012-10-28 07:36:00
11:56 PM,28.4,6.8,40,29.95,10.0,Calm,Calm,-,N/A,,Clear,0,2012-10-28 07:56:00